Regional Weather Roundup
Issued by NWS

Home | Current Version | Previous Version | Graphics & Text | Print | Product List | Glossary Off
Versions: 1 2 3 4 5 6 7 8 9 10 11 12 13 14 15 16 17 18 19 20 21 22 23 24 25 26 27 28 29 30 31 32 33 34 35 36 37 38 39 40 41 42 43 44 45 46 47 48 49 50

000
ASUS43 KLSX 260110
RWRMO

WEATHER SUMMARY FOR MISSOURI
NATIONAL WEATHER SERVICE SPRINGFIELD MO
800 PM CDT WED MAY 25 2016

NOTE: "FAIR" INDICATES FEW OR NO CLOUDS BELOW 12,000 FEET WITH NO
       SIGNIFICANT WEATHER AND/OR OBSTRUCTIONS TO VISIBILITY.
       CURRENT SKY AND/OR WEATHER CONDITIONS ARE NOT AVAILABLE FOR
       CHILLICOTHE AND FARMINGTON.

MOZ001>031-035>038-043-044-053-054-260200-
...NORTHERN AND WESTERN MISSOURI...

CITY           SKY/WX    TMP DP  RH WIND       PRES   REMARKS
KANSAS CTY INT MOCLDY    76  67  73 S8        29.86R
KANSAS C DTWN  MOCLDY    80  67  64 S8        29.84S
LEE`S SUMMIT   PTCLDY    80  66  62 S12       29.86S
ST JOSEPH      CLOUDY    78  67  68 SE7       29.84R
CHILLICOTHE      N/A     81  65  58 S3        29.88R
KIRKSVILLE     CLOUDY    78  63  59 S6        29.90R

$$
MOZ066>068-077>081-088>096-101>105-260200-
...SOUTHWEST MISSOURI...

CITY           SKY/WX    TMP DP  RH WIND       PRES   REMARKS
SPRINGFIELD    CLOUDY    76  67  73 SE12      29.95R
JOPLIN         PTCLDY    78  71  79 S12       29.90S
BRANSON        PTCLDY    75  68  78 S7        29.99R

$$
MOZ032>034-039>042-045>050-055>058-069>072-260200-
...CENTRAL MISSOURI...

CITY           SKY/WX    TMP DP  RH WIND       PRES   REMARKS
COLUMBIA       CLEAR     77  65  66 S7        29.92R
JEFFERSON CITY CLEAR     79  63  57 SE5       29.91R
ROLLA          CLEAR     73  64  73 S9        29.95R
SEDALIA        CLOUDY    79  66  64 S8        29.91R
WHITEMAN AFB   MOCLDY    80  69  69 SW8       29.88R
WARRENSBURG    CLEAR     77  64  65 SE6       29.88S

$$
MOZ051-052-059>065-260200-
...EAST CENTRAL MISSOURI...

CITY           SKY/WX    TMP DP  RH WIND       PRES   REMARKS
ST LOUIS INTL  PTCLDY    81  63  54 S10       29.95R
SPIRIT OF STL  PTCLDY    78  64  61 S6        29.93R
ST CHARLES     CLEAR     80  63  55 S12       29.92R

$$
MOZ072>076-082>087-097>100-106>115-260200-
...SOUTH CENTRAL AND SOUTHEAST MISSOURI...

CITY           SKY/WX    TMP DP  RH WIND       PRES   REMARKS
CAPE GIRARDEAU CLEAR     71  66  84 S13       30.03R
FARMINGTON     CLEAR     74  67  78 S9        30.01R
POPLAR BLUFF   CLEAR     72  67  84 S8        30.03R
WEST PLAINS    CLEAR     73  64  73 S8        30.03R

$$



USA.gov is the U.S. government's official web portal to all federal, state and local government web resources and services.